Regional Weather Roundup
Issued by NWS

Home | Current Version | Previous Version | Graphics & Text | Print | Product List | Glossary On
Versions: 1 2 3 4 5 6 7 8 9 10 11 12 13 14 15 16 17 18 19 20 21 22 23 24 25 26 27 28 29 30 31 32 33 34 35 36 37 38 39 40 41 42 43 44 45 46 47 48 49 50
000
ASUS45 KBOU 281807
RWRCO

WEATHER ROUNDUP FOR COLORADO
NATIONAL WEATHER SERVICE DENVER/BOULDER CO
1200 PM MDT FRI AUG 28 2015

NOTE: "FAIR" INDICATES FEW OR NO CLOUDS BELOW 12000 FEET WITH NO
SIGNIFICANT WEATHER AND/OR OBSTRUCTIONS TO VISIBILITY.

COZ001>005-013-030-031-281900-
...NORTHWEST COLORADO...

CITY           SKY/WX    TMP DP  RH WIND       PRES   REMARKS
CRAIG          SUNNY     73  50  44 VRB5      30.38F
HAYDEN         NOT AVBL
MEEKER         SUNNY     72  47  40 VRB5      30.38F
MOUNT WERNER   NOT AVBL
STEAMBOAT SPGS SUNNY     66  47  50 W5        30.42S
WALDEN         SUNNY     61  43  51 CALM      30.46F
$$

COZ006>008-011-281900-
...WEST CENTRAL VALLEYS...

CITY           SKY/WX    TMP DP  RH WIND       PRES   REMARKS
GRAND JUNCTION SUNNY     75  52  44 SE12      30.28F
MONTROSE       SUNNY     75  51  43 VRB5      30.36F
EAGLE          MOSUNNY   68  48  49 CALM      30.42F
RIFLE          SUNNY     71  50  47 S3        30.34F
DELTA          SUNNY     74  51  45 CALM      30.32F
NUCLA          SUNNY     79  41  25 CALM      30.35F
$$

COZ017>023-064>068-281900-
...SOUTHWEST COLORADO...

CITY           SKY/WX    TMP DP  RH WIND       PRES   REMARKS
DURANGO        SUNNY     78  39  24 SW7       30.31F
CORTEZ         SUNNY     84  36  18 N12G20    30.27F
PAGOSA SPRINGS SUNNY     74  27  17 CALM      30.39F
TELLURIDE      SUNNY     66  36  33 NE5       30.54F
WOLF CREEK PAS SUNNY     54  32  43 N6G18     30.72R
$$

COZ009-010-012-014-032>034-037-058>063-281900-
...CENTRAL COLORADO...

CITY           SKY/WX    TMP DP  RH WIND       PRES   REMARKS
ASPEN          SUNNY     69  46  43 N8        30.45F
BUENA VISTA    SUNNY     74  32  21 NW14G22   30.42F
COPPER MTN     CLOUDY    54  39  58 W14       30.72S
BERTHOUD PASS  PTSUNNY   41  30  65 N9G18     30.75S
COTTONWOOD PAS CLOUDY    68  32  26 CALM      30.56S
GUNNISON       SUNNY     66  45  45 SW7       30.47F
KREMMLING      SUNNY     63  48  59 CALM      30.46F
LEADVILLE      SUNNY     61  32  33 N15G23    30.57S
MONARCH PASS   CLOUDY    50  39  66 W5        30.81S
SALIDA         SUNNY     74  33  21 NW3       30.46F
SUNLIGHT       SUNNY     55  43  62 W3        30.69S
WILKERSON PASS PTSUNNY   57  36  44 S3        30.68F
$$

COZ069>075-281900-
...SAN LUIS VALLEY/SANGRE DE CRISTO MOUNTAINS...

CITY           SKY/WX    TMP DP  RH WIND       PRES   REMARKS
ALAMOSA        SUNNY     74  40  29 VRB6      30.38F
LA VETA PASS   SUNNY     66  41  39 NE7       30.58S
SAGUACHE       SUNNY     73  34  23 NE9       30.41F
$$

COZ035-036-038>040-281900-
...NORTHERN COLORADO FRONT RANGE...

CITY           SKY/WX    TMP DP  RH WIND       PRES   REMARKS
DENVER INTL AP MOSUNNY   81  43  26 N10       30.26F
DMNS CITY PARK   N/A     81  41  24 E10G21    30.25F
AURORA         MOSUNNY   79  44  28 N9        30.28F
FRONT RANGE AP MOSUNNY   79  41  25 N9        30.28S
ERIE MUNI ARPT PTSUNNY   81  40  23 E5        30.24S
BOULDER MUN AP PTSUNNY   82  41  23 E3        30.25S
CENTENNIAL     MOSUNNY   77  45  32 NE8       30.29F
BROOMFIELD     PTSUNNY   81  43  26 E10       30.29R
FORT COLLINS   SUNNY     82  46  28 N14G20    30.23F
LONGMONT       PTSUNNY   82  47  29 NE3       30.25S
$$

COZ041-046-047-076>085-087-088-281900-
...PIKES PEAK/PALMER DIVIDE AND SOUTHERN FOOTHILLS...

CITY           SKY/WX    TMP DP  RH WIND       PRES   REMARKS
COLO. SPRINGS  MOSUNNY   78  42  27 N15G25    30.31S
A. F. ACADEMY  SUNNY     75  45  34 N17G25    30.33S
ELLICOTT       MOSUNNY  N/A N/A N/A N14       30.30S
FALCON         SUNNY     73  45  37 MISG      30.37F
FORT CARSON    SUNNY     79  46  31 NE15      30.28F
LIMON          SUNNY     78  48  34 N14G25    30.24F
MONUMENT HILL  SUNNY     72  43  35 N10G23    30.38F
TRINIDAD       SUNNY     79  51  37 VRB5      30.26F
$$

COZ042>045-048>051-090-091-281900-
...NORTHEAST COLORADO...

CITY           SKY/WX    TMP DP  RH WIND       PRES   REMARKS
GREELEY ARPT   MOSUNNY   82  46  28 N17       30.22F
AKRON          SUNNY     83  49  30 NW13      30.17F
BURLINGTON     SUNNY     85  47  26 NW17G23   30.13F
WRAY           SUNNY     88  49  26 NW15G21   30.09F
STERLING       SUNNY     84  50  30 N14G22    30.13S
HOLYOKE        SUNNY     86  50  28 N15G22    30.10S
FORT MORGAN    SUNNY     81  52  36 W12G17    30.20S
$$

COZ086-089-092>099-281900-
...SOUTHEAST COLORADO...

CITY           SKY/WX    TMP DP  RH WIND       PRES   REMARKS
PUEBLO         MOSUNNY   83  54  36 SW8       30.21S
LA JUNTA       SUNNY     86  55  34 N9        30.17F
LAMAR          SUNNY     85  56  37 VRB7      30.11F
SPRINGFIELD      N/A     82  53  36 N7G18     30.15F
$$




USA.gov is the U.S. government's official web portal to all federal, state and local government web resources and services.